Regional Weather Roundup
Issued by NWS Wakefield, VA

Home | Current Version | Previous Version | Text Only | Print | Product List | Glossary Off
Versions: 1 2 3 4 5 6 7 8 9 10 11 12 13 14 15 16 17 18 19 20 21 22 23 24 25 26 27 28 29 30 31 32 33 34 35 36 37 38 39 40 41 42 43 44 45 46 47 48 49 50

560
ASUS41 KAKQ 190315
RWRAKQ

REGIONAL WEATHER ROUNDUP
NATIONAL WEATHER SERVICE WAKEFIELD VA
1100 PM EDT WED OCT 18 2017

Note: "fair" indicates few or no clouds below 12,000 feet with no
significant weather and/or obstructions to visibility. * = Denotes
station may not report precipitation (e.g., rain,snow,etc.),
thunder or fog.

VAZ042-051-052>054-056-190400-
NORTHERN VIRGINIA

CITY           SKY/WX    TMP DP  RH WIND       PRES   REMARKS
WASH NATIONAL  PTCLDY    57  49  74 SW5       30.32S
DULLES         PTCLDY    49  45  86 S3        30.31R
FORT BELVOIR   CLEAR     47  46  94 CALM      30.32R
QUANTICO       PTCLDY    51  49  92 NW8       30.33R
FREDERICKSBRG* CLEAR     48  46  95 CALM      30.31S
STAFFORD*      CLEAR     43  43 100 CALM      30.36S
WARRENTON      PTCLDY    41  37  87 CALM      30.31S
CULPEPER*      CLEAR     45  42  88 CALM      30.32S
MANASSAS*      CLOUDY    45  44  97 CALM      30.32R
LEESBURG*      PTCLDY    50  46  87 S5        30.31F
WINCHESTER     CLEAR     48  41  76 SW5       30.29S
FRONT ROYAL*   CLEAR     50  43  76 CALM      30.29R
LURAY*         CLEAR     48  43  81 CALM      30.30S
$$

VAZ048-049-060>072-079>083-190400-
CENTRAL AND SOUTH CENTRAL VIRGINIA

CITY           SKY/WX    TMP DP  RH WIND       PRES   REMARKS
RICHMOND       CLEAR     50  43  77 CALM      30.33S
CHESTERFIELD*  NOT AVBL
PETERSBURG*    CLEAR    N/A N/A N/A CALM      30.34S
HANOVER        CLEAR     46  43  89 CALM      30.34R
TAPPAHANNOCK*  CLEAR    N/A N/A N/A CALM      30.33S
QUINTON*       FAIR      47  47 100 CALM      30.33S
CHARLOTTSVILLE PTCLDY    50  45  83 CALM      30.32R
GORDONSVILLE*  CLOUDY    43  42  97 SW3       30.32S
ORANGE*        PTCLDY    45  41  87 CALM      30.32R
LOUISA*        CLEAR     45  41  87 S3        30.32S
BUMPASS*       FAIR      46  45  97 CALM      30.32S
FARMVILLE*     CLEAR     43  43 100 CALM      30.32S
CREWE*         FAIR      42  42 100 CALM      30.33S
FORT PICKETT*  FAIR      44  44  99 CALM      30.33S
CHASE CITY*    FAIR      46  43  90 CALM      30.33S
CLARKSVILLE*   FAIR      45  45 100 CALM      30.33R
SOUTH HILL*    CLEAR     43  43  99 CALM      30.39S
LAWRENCEVILLE* FAIR      47  44  91 CALM      30.32F
EMPORIA*       CLEAR     45  43  93 CALM      30.34F
$$

VAZ088>098-190400-
SOUTHEAST VIRGINIA

CITY           SKY/WX    TMP DP  RH WIND       PRES   REMARKS
NORFOLK        CLEAR     54  51  90 CALM      30.33F
VIRGINIA BEACH CLEAR     51  47  86 CALM      30.33S
NORFOLK NAVAL  PTCLDY    51  47  86 CALM      30.34F
WEST POINT*    CLEAR     43  43 100 CALM      30.35S
SALUDA*        FAIR      47  47  97 CALM      30.33F
NEWPORT NEWS   CLEAR     49  47  93 CALM      30.33F
LANGLEY AFB    CLEAR     50  49  94 CALM      30.33S
FORT EUSTIS    CLEAR     51  46  83 CALM      30.31S
WILLIAMSBURG*  CLEAR     52  52 100 CALM      30.35S
HR EXEC AP*    NOT AVBL
FRANKLIN*      CLEAR     45  44  95 CALM      30.34S
US460-WAKEFLD  CLEAR     47  46  97 CALM      30.33F
$$

VAZ020-022-025-037-045-190400-
WEST CENTRAL AND SOUTHWEST VIRGINIA

CITY           SKY/WX    TMP DP  RH WIND       PRES   REMARKS
STAUNTON*      CLOUDY    46  38  76 CALM      30.34S
WAYNESBORO*    PTCLDY    45  41  86 CALM      30.32S
HOT SPRINGS VA CLOUDY    49  27  43 CALM      30.35S
LYNCHBURG      CLOUDY    45  40  82 CALM      30.33S
DANVILLE       CLEAR     43  32  65 CALM      30.33S
SOUTH BOSTON*  FAIR      41  40  96 CALM      30.33S
MARTINSVILLE   CLOUDY    41  40  96 CALM      30.37S
ROANOKE        PTCLDY    49  42  77 CALM      30.35S
BLACKSBURG     PTCLDY    47  42  84 CALM      30.38R
DUBLIN*        PTCLDY    49  44  81 CALM      30.36S
MARION*        PTCLDY    47  41  80 CALM      30.37S
HILLSVILLE*    PTCLDY    50  32  50 CALM      30.34S
RICHLANDS*     FAIR      56  18  22 CALM      30.32S
WISE*          CLEAR     52  39  62 S8        30.31F
ABINGDON*      PTCLDY    54  46  72 E6        30.31S
$$

MDZ021>025-VAZ099-100-190400-
SOUTHERN MARYLAND AND THE DELMARVA PENINSULA

CITY           SKY/WX    TMP DP  RH WIND       PRES   REMARKS
PATUXENT RIVER PTCLDY    47  45  93 VRB3      30.32F
BAY BRIDGE APT CLEAR     54  52  94 SE3       30.32S
LEONARDTOWN    NOT AVBL
DOVER          CLEAR     53  51  95 S5        30.31F
GEORGETOWN     CLEAR     50  47  89 SW3       30.34F
EASTON         CLEAR     52  45  77 CALM      30.36F
CAMBRIDGE      CLEAR     46  45  93 SE3       30.33S
SALISBURY      CLEAR     46  46 100 E3        30.34F
OCEAN CITY     CLEAR     47  45  93 CALM      30.34F
WALLOPS ISLAND CLEAR     49  48  97 CALM      30.34F
ACCOMACK*      CLEAR     46  46  97 CALM      30.33F
$$

NCZ012>017-030>032-190400-
NORTH CENTRAL AND EASTERN NORTH CAROLINA

CITY           SKY/WX    TMP DP  RH WIND       PRES   REMARKS
ROANOKE RAPIDS FAIR      46  46 100 CALM      30.33S
RALEIGH        PTCLDY    47  45  93 CALM      30.33S
ELIZABETH CITY CLEAR     60  56  86 N7        30.33F
AHOSKIE*       CLEAR     50  49  97 CALM      30.33S
EDENTON*       CLEAR     54  52  93 CALM      30.33F
CURRITUCK*     CLEAR     53  52  96 CALM      30.34S
KILL DEVIL HLS CLEAR     64  55  73 CALM      30.31S
MANTEO         CLEAR    N/A N/A N/A NE5       30.32S
CAPE HATTERAS  PTCLDY    66  61  84 NE7       30.29S
TARBORO*       NOT AVBL
GOLDSBORO      CLEAR     54  49  84 CALM      30.30S
WASHINGTON     CLEAR     55  52  90 NE5       30.32F
GREENVILLE     CLEAR     55  54  94 CALM      30.32F
NEW BERN       CLEAR     58  56  93 N3        30.31F
WILMINGTON     CLEAR     59  52  77 N3        30.29S
$$

VAZ048-190400-
ELSEWHERE

CITY           SKY/WX    TMP DP  RH WIND       PRES   REMARKS
HARRISBURG PA  PTCLDY    52  48  86 SE5       30.29R
BALTIMORE      PTCLDY    48  47  96 W3        30.31S
ANNAPOLIS      CLEAR     56  49  77 CALM      30.32S
ANDREWS AFB    CLEAR     51  45  80 S5        30.30F
PHILADELPHIA   CLEAR     58  50  75 S5        30.31F
HENDERSON NC   CLEAR     45  42  88 CALM      30.33S
GREENSBORO     MOCLDY    49  43  80 CALM      30.33R
ROCKY MOUNT    CLEAR     49  49 100 CALM      30.32F FOG
$$

VAZ100-190400-
MARINE

STATION/POSITION TIME  TEMP    WIND        PRES    WAVE   SWELL
                       AIR SEA DIR/SP/G            HT/PER HT/PER
                 (UTC) (F)     (DEG/KT/KT) (MB)    (FT/S) (FT/S)
BRANDYWINE LGT   0242   64     240/ 12/ 14 1027.1F
CAPE MAY NJ      0248   63 65  250/ 11/ 12 1026.4F
LEWES DE         0242   55 65  220/  4/  5 1026.9F
15NM E FENWICK I 0250   64 67  230/  8/ 10 1027.8R   3/ 9   3/ 9
OCEAN-CITY-INLET 0242   58 67  300/  2/  3 1027.8F
WACHAPREAGUE VA  0242   48 64   CALM  /  1 1027.5F
THOMAS POINT MD  0300   63 67  210/  9/ 11   N/A
GOOSES REEF MD   0300   63 69  190/ 10/ 10 1026.1    1/ 2
COVE POINT MD    0242   59     200/  7/  8 1027.3F
SOLOMONS ISLAND  0242   59 69  190/  4/  6 1026.4F
BISHOPS HEAD MD  0242   62 62  180/  5/  6 1027.2F
PINEY POINT MD   0242          210/ 11/ 12   N/A
POTOMAC MD       0300   62 69  180/ 10/ 12 1026.2    1/ 2
CAMBRIDGE MD     0242   54 67              1027.5F
LEWISETTA VA     0242   57 65  220/  7/  8 1026.8F
RAPPAHANNOCK LGT 0242          150/  8/  9 1027.9S
STINGRAY PT      0300   63 69  190/  8/ 10 1027.3    0
YORK RVR RNG VA  0242   64     160/  7/  9 1027.5F
YORKTOWN VA      0242   58 70  190/  3/  4 1026.8F
JAMESTOWN VA     0300      70  180/  6/  8   N/A     0
DOMINION TERM VA 0242   63     130/  8/ 10 1027.3F
KIPTOPEKE VA     0242      67  100/  4/  4   N/A
CAPE HENRY VA    0242   61     170/  3/  4   N/A
WILLOUBY STN VA  0242   62     130/  6/  7 1027.0F
S CRANEY ISL VA  0242   61     120/  4/  5 1026.9F
CAPE HENRY BUOY  0300      70                N/A     3/ 9   2/11
1ST LANDING BUOY 0300   63 68              1027.1    1/ 5
CAPE CHARLES BUO 0251      70                N/A     3/10   2/11
64NM E OF VA BCH 0250   66 67   90/  8/ 10 1027.3F   4/ 8   3/ 8
DUCK PIER NC     0242   66 69   50/  8/  9 1026.4S
44100 DUCK FRF   0235      70                N/A     4/ 9   2/11
44056 DUCK FRF   0300      70                N/A     3/ 8   2/11
OREGON INLET NC  0242   66 65   50/  7/ 11 1026.3S
HATTERAS NC      0242   66 68   40/  8/ 12 1025.4S
DIAMOND SHLS NC  0250   74 82   90/ 10/ 14 1024.8R   6/10   5/10
CAPE LOOKOUT NC  0300   65      10/ 11/ 13 1024.9S
$$




USA.gov is the U.S. government's official web portal to all federal, state and local government web resources and services.